User: anonymous
Location: Unspecified
(0.0000°N, 0.0000°E)
Time: 03:34:34
(UTC+02:00)
Language:

PSLV R/B - Orbit

View from above orbital plane
View from above orbital plane
View from above satellite
View from above satellite

Ground track
Ground track

The orbit data is extracted from the following two-line orbital elements,

1 29713U 07001E   14205.03766639  .00000338  00000-0  48072-4 0  3737
2 29713 097.6481 197.8732 0025365 336.2919 023.7124 14.82658662406951
Epoch (UTC): 24 July 2014 00:54:14
Eccentricity: 0.0025365
inclination: 97.6481°
perigee height: 603 km
apogee height: 639 km
right ascension of ascending node: 197.8732°
argument of perigee: 336.2919°
revolutions per day: 14.82658662
mean anomaly at epoch: 23.7124°
orbit number at epoch: 40695

The dashed part of the orbit path shows where the satellite is in the earth's shadow,  

DLR